Location: Haut Kerinec
(48.0623°N, 4.4081°W)
Time: 02:19:40
(UTC+00:00)

Cosmos 371 Rocket - Pass Details

Date: 01 June 2020
Orbit: 683 x 699 km, 74.0° (Epoch: 05 July)

Event Time Altitude Azimuth Distance (km) Brightness Sun altitude
Rises 20:37:46 0° 190° (S) 3,051 6.3 -4.5°
Reaches altitude 10° 20:40:05 10° 187° (S) 2,142 5.5 -4.8°
Maximum altitude 20:44:50 61° 108° (ESE) 790 3.4 -5.4°
Drops below altitude 10° 20:49:39 10° 29° (NNE) 2,168 6.0 -6.0°
Sets 20:52:00 0° 26° (NNE) 3,092 6.9 -6.3°
